Terminal Aerodrome Forecast
Issued by NWS

Home | Current Version | Previous Version | Graphics & Text | Print | Product List | Glossary Off
Versions: 1 2 3 4 5 6 7 8 9 10 11 12 13 14 15 16 17 18 19 20 21 22 23 24 25 26 27 28 29 30 31 32 33

000
FTUS43 KDDC 130000 AAA
TAFGCK
TAF AMD
KGCK 130005Z 1300/1324 VRB25G35KT 5SM -TSRA BKN070CB
     FM130130 19012KT P6SM VCTS BKN090CB
     FM130400 01015KT P6SM SCT090 BKN150
      TEMPO 1310/1314 4SM BR SCT015=

USA.gov is the U.S. government's official web portal to all federal, state and local government web resources and services.